USA 184 - Orbit

View from above orbital plane
View from above orbital plane
View from above satellite
View from above satellite

Ground track
Ground track

The orbit data is extracted from the following two-line orbital elements,

1 29249U 06027A   13131.69658410 0.00000481  00000-0  00000-0 0    05
2 29249  63.4285 108.6600 6850927 268.6151  18.6355  2.00601611    08
Epoch (UTC): 11 May 2013 16:43:04
Eccentricity: 0.6850927
inclination: 63.4285°
perigee height: 1985 km
apogee height: 38372 km
right ascension of ascending node: 108.6600°
argument of perigee: 268.6151°
revolutions per day: 2.00601611
mean anomaly at epoch: 18.6355°
orbit number at epoch: 0

The dashed part of the orbit path shows where the satellite is in the earth's shadow,  

Developed and maintained by Chris Peat, Heavens-Above GmbH. Please read the updated FAQ before sending e-mail. Imprint. DLR